DELTA 1 DEB, 10653

Orbit data source: Space-Track

DELTA 1 DEB, 10653 is space debris in SSO originally from a launch on Thu, 29 Jul 1976 UTC launched from the Air Force Western Test Range (AFWTR). Debris objects in space refer to the collection of defunct objects orbiting the Earth. Examples of debris include non-operational satellites, rocket bodies, and fragments generated from explosions, collisions, or faulty payload assembly.

Loading next visibility...
Identifier
10653, 1976-077P
Orbit
SSO
Country
Flag of USUS
Related business
Manufacturer
Unknown
Mission
Spacecraft
Bus & Motor
Unknown
Mass
Unknown
Launch date (UTC)
1976-07-29 (50 years ago)
Launch vehicle
Unknown
Launch site
Air Force Western Test Range (AFWTR)
Object type
Payload
Rocket body
Debris
Shape & HBR
Unknown shape, 0.3 m
Radar Cross Section
Medium (>0.1 m² and <1 m²)

Expand to show TLE details & history
Last TLE update: 21 hours ago

TLE from 21 hours ago
0 DELTA 1 DEB
1 10653U 76077P   26033.53932039 -.00000007  00000-0  35503-3 0  9997
2 10653 102.6306 152.2855 0127556 297.9764 123.8095 12.24249230212656
Epoch: 2026-02-02T12:56Z
TLE epoch observation values (Epoch: 2026-02-02T12:56:37.281Z)
Latitude
60.47431°
Longitude
162.20853°
Altitude
1,641.498 km
Speed
7.031 km/s
True Right ascension
08h 36m 23s
True Declination
60° 20' 34"
Sunlit
Object was in full shadow at epoch
Visualization orbit readout
Latitude
Unknown
Longitude
Unknown
Altitude
Unknown
Speed
Unknown
Apparent Right ascension
Unknown
Apparent Declination
Unknown
Sunlit
N/A
Visualization observer readout
Local Sidereal Time
11:42:00
Azimuth
Unknown
Elevation
Unknown
Doppler factor
Unknown
Orbital elements
Apogee altitude
1,673.125 km
Perigee altitude
1,470.315 km
Semi-major axis
7,949.857 km
Eccentricity
0.01276
Inclination
102.6306°
RAAN
152.2855°
Arg. of periapsis
297.9764°
True anomaly
125.01323°
Mean anomaly
123.8095°
Eccentric anomaly
124.41244°
Mean motion
3.06199 °/min
Orbital period
117.57 mins
BSTAR
0.00035503
Loading maneuver chart data...
Computing Atmospheric mass density...
Loading historical data...
Loading historical data...
Loading historical data...
Loading historical data...
Loading historical data...
Loading historical data...
Loading historical data...

Documentation

Showing up to 5 results
|